Regional Weather Roundup
Issued by NWS

Home | Current Version | Previous Version | Graphics & Text | Print | Product List | Glossary On
Versions: 1 2 3 4 5 6 7 8 9 10 11 12 13 14 15 16 17 18 19 20 21 22 23 24 25 26 27 28 29 30 31 32 33 34 35 36 37 38 39 40 41 42 43 44 45 46 47 48 49 50
000
ASUS43 KDMX 290803
RWRIA

WEATHER ROUNDUP FOR IOWA
NATIONAL WEATHER SERVICE DES MOINES IA
300 AM CDT FRI APR 29 2016

NOTE: "FAIR" INDICATES FEW OR NO CLOUDS BELOW 12,000 FEET WITH NO
SIGNIFICANT WEATHER AND/OR OBSTRUCTIONS TO VISIBILITY.

* - THESE STATIONS ARE NOT NWS STATIONS...THUS NOT UNDER NWS
QUALITY CONTROL.  THEY ALSO DO NOT REPORT WEATHER SUCH
AS PRECIPITATION OR FOG.

IAZ001>003-012>014-020>022-031>034-043>046-290900-
   NORTHWEST IOWA

CITY           SKY/WX    TMP DP  RH WIND       PRES   REMARKS
CARROLL *      CLOUDY    43  41  93 N8        30.10F
CHEROKEE *     CLOUDY    40  40 100 N3        30.12F
DENISON *      CLOUDY    43  41  93 CALM      30.09F
LE MARS *      CLOUDY    41  39  93 NW3       30.14S
ORANGE CITY *  CLOUDY    39  37  93 CALM      30.12F
SHELDON *      CLOUDY    39  39 100 CALM      30.11F
SIOUX CITY     CLOUDY    43  39  86 NE5       30.13F
SPENCER        CLOUDY    40  36  86 NE3       30.12F
STORM LAKE *   CLOUDY    39  39 100 N3        30.11F
$$

IAZ055>058-069>071-079>083-090>094-290900-
   SOUTHWEST IOWA

CITY           SKY/WX    TMP DP  RH WIND       PRES   REMARKS
ATLANTIC *     CLOUDY    45  43  93 NW7       30.10F FOG
AUDUBON *      CLOUDY    43  39  87 N6        30.10F
CLARINDA *       N/A    N/A N/A N/A MISG        N/A
COUNCIL BLFS * CLOUDY    45  43  93 NW5       30.12R
CRESTON *      CLOUDY    45  41  87 NW9       30.11R
HARLAN  *      CLOUDY    43  43 100 N5        30.14S FOG
LAMONI         CLOUDY    47  42  83 NW7       30.09R
RED OAK *      CLOUDY    46  41  81 NW8       30.12R
SHENANDOAH *   CLOUDY    46  43  87 NW5       30.14R
$$

IAZ047>049-059>061-072>074-084-290900-
   CENTRAL IOWA

CITY           SKY/WX    TMP DP  RH WIND       PRES   REMARKS
AMES           CLOUDY    45  43  93 N10       30.09R
ANKENY *       CLOUDY    46  46 100 N9        30.08S
BOONE *        CLOUDY    43  43 100 NW10      30.08S FOG
CHARITON *     CLOUDY    48  45  87 NW7       30.08R
DES MOINES     CLOUDY    48  43  82 N8        30.08S
GRINNELL*      CLOUDY    46  45  93 N6        30.07S
KNOXVILLE *    CLOUDY    48  46  93 NW7       30.06S
MARSHALLTOWN   CLOUDY    44  43  96 N8        30.08S
NEWTON *       CLOUDY    46  46 100 N9        30.06F FOG
PELLA *        CLOUDY    48  47  96 N3        30.08S FOG
$$

IAZ004>006-015-016-023>025-035-036-290900-
   NORTH CENTRAL IOWA

CITY           SKY/WX    TMP DP  RH WIND       PRES   REMARKS
ALGONA *       CLOUDY    41  39  93 N6        30.11F FOG
CLARION *      CLOUDY    41  41 100 N6        30.10S FOG
ESTHERVILLE    CLOUDY    39  37  92 NE3       30.12R
FORT DODGE *   CLOUDY    41  37  87 NW3       30.11S
MASON CITY     CLOUDY    41  40  96 N3        30.11S FOG
FOREST CITY *  CLOUDY    39  39 100 N3        30.10S FOG
WEBSTER CITY * CLOUDY    43  43 100 NW8       30.09R FOG
IOWA FALLS *   CLOUDY    43  43 100 N5        30.10R FOG
$$

IAZ007>011-017>019-026>030-037>042-050>054-066-290900-
   NORTHEAST IOWA

CITY           SKY/WX    TMP DP  RH WIND       PRES   REMARKS
CEDAR RAPIDS   CLOUDY    44  44 100 N8        30.06R FOG
CHARLES CITY * CLOUDY    41  41 100 CALM      30.10R
CLINTON *      CLOUDY    43  42  97 N10       30.06R FOG
DECORAH *      CLOUDY    39  39 100 N5        30.07F
DUBUQUE        CLOUDY    40  39  97 NE5       30.06S
MONTICELLO *   CLOUDY    43  41  93 N5        30.07R FOG
OELWEIN *      CLOUDY    41  41 100 N6        30.08F
WATERLOO       CLOUDY    42  39  89 NE7       30.08S
$$

IAZ064-065-067-068-078-290900-
   EAST CENTRAL IOWA

CITY           SKY/WX    TMP DP  RH WIND       PRES   REMARKS
DAVENPORT      CLOUDY    44  43  96 N10       30.05R FOG
IOWA CITY      CLOUDY    46  44  93 N9        30.07S FOG
MT. PLEASANT * CLOUDY    52  52 100 N6        30.04S FOG
MUSCATINE *    CLOUDY    48  46  93 N9        30.05R FOG
QUAD CITIES    CLOUDY    47  44  90 N8        30.03S FOG
$$

IAZ062-063-075>077-085>089-095>099-290900-
   SOUTHEAST IOWA

CITY           SKY/WX    TMP DP  RH WIND       PRES   REMARKS
BURLINGTON     CLOUDY    49  48  97 CALM      30.03S
FAIRFIELD *    CLOUDY    48  46  93 N10       30.05S FOG
FORT MADISON * PTCLDY    48  46  93 W3        30.05R
KEOKUK *       CLOUDY    50  48  93 W7        30.05R
OSKALOOSA *    CLOUDY    47  46  95 N8        30.07R FOG
OTTUMWA        CLOUDY    48  47  96 N9        30.06R FOG
WASHINGTON *   CLOUDY    48  48 100 N12       30.06R FOG
$$

ABBREVIATIONS USED IN REMARKS
   TC - TEMPERATURES IN CELSIUS
  WCI - WIND CHILL INDEX
   HX - HEAT INDEX
  VSB - VISIBILITY
$$




USA.gov is the U.S. government's official web portal to all federal, state and local government web resources and services.